Flag for U.S.A. Weather past 2 weeks in Durham, North Carolina, U.S.A.

Now
51 °F

Scattered clouds.


Feels Like: 50 °F
Forecast: 42 / 67 °F
Wind: 5 mph from South

Location: Raleigh-Durham International Airport

Current Time: Oct 20, 2014 at 9:35:42 AM

Latest Report: Oct 20, 2014 at 8:51 AM


Visibility: 10 mi

Pressure: 30.16 "Hg

Humidity: 74%

Dew point: 43 °F

Location of DurhamLocation

Historic Weather in Durham — Graph

°F

Durham temperature yesterday

Maximum temperature yesterday: 65 °F (at 3:51 PM)
Minimum temperature yesterday: 47 °F (at 10:51 PM)
Average temperature yesterday: 55 °F

Past Weeks' High & Low Weather Summary

 TemperatureHumidityPressure
High86 °F (Oct 11, 3:51 PM)94% (Oct 15, 7:51 AM)30.25 "Hg (Oct 15, 7:51 AM)
Low42 °F (Oct 5, 7:51 AM)34% (Oct 5, 3:51 PM)29.75 "Hg (Oct 18, 3:51 AM)
Average64 °F71%30.00 "Hg
* Reported Oct 5 7:51 AM — Oct 20 7:51 AM, Durham, Weather by CustomWeather, © 2014

Note: Actual official high and low records may vary slightly from our data, if they occured in-between our weather recording intervals... More about our weather records

Advertising

Durham weather history for previous 24 hours

 ConditionsComfort  
Time TempWeatherWind HumidityBarometerVisibility
7:51 AM
Oct 20
46 °FPassing clouds.3 mph83%30.15 "Hg10 mi
6:51 AM44 °FPassing clouds.No wind85%30.15 "Hg10 mi
5:51 AM42 °FPassing clouds.No wind92%30.14 "Hg10 mi
4:51 AM43 °FPassing clouds.No wind89%30.13 "Hg10 mi
3:51 AM42 °FPassing clouds.No wind89%30.12 "Hg10 mi
2:51 AM43 °FPassing clouds.No wind89%30.13 "Hg10 mi
1:51 AM43 °FPassing clouds.No wind89%30.13 "Hg10 mi
12:51 AM45 °FPassing clouds.No wind86%30.13 "Hg10 mi
10:51 PM
Oct 19
47 °FClear.No wind86%30.14 "Hg10 mi
9:51 PM50 °FClear.No wind80%30.13 "Hg10 mi
8:51 PM51 °FPassing clouds.No wind77%30.12 "Hg10 mi
7:51 PM50 °FPassing clouds.No wind80%30.11 "Hg10 mi
6:51 PM54 °FPassing clouds.No wind74%30.09 "Hg10 mi
5:51 PM63 °FPassing clouds.No wind43%30.07 "Hg10 mi
4:51 PM65 °FPassing clouds.3 mph39%30.07 "Hg10 mi
3:51 PM65 °FPassing clouds.6 mph37%30.07 "Hg10 mi
2:51 PM63 °FPassing clouds.5 mph41%30.08 "Hg10 mi
1:51 PM61 °FSunny.5 mph44%30.08 "Hg10 mi
12:51 PM61 °FPassing clouds.9 mph46%30.11 "Hg10 mi
11:51 AM59 °FPassing clouds.10 mph46%30.12 "Hg10 mi
10:51 AM59 °FPassing clouds.6 mph49%30.12 "Hg10 mi
9:51 AM55 °FSunny.9 mph57%30.12 "Hg10 mi
Weather by CustomWeather, © 2014

See weather overviewHow to use our weather pages